Location: Acequia del Cap
(41.7000°N, 0.6167°E)
Time: 17:09:19
(UTC+00:00)

Okean 1 Rocket - Pass Details

Date: 07 August 2020
Orbit: 607 x 634 km, 82.5° (Epoch: 22 September)

Event Time Altitude Azimuth Distance (km) Brightness Sun altitude
Exits shadow 02:38:15 27° 295° (WNW) 1,188 4.3 -21.8°
Drops below altitude 10° 02:41:35 10° 344° (NNW) 1,971 6.0 -21.4°
Sets 02:44:06 0° 357° (N) 2,884 7.2 -21.1°
